This is the latest recevied weather packets stored in our database for station/object DG4DAA-13. If no packets are shown the sender has not sent any weather packets the latest 1 day(s).
| Time | Temp. | Humidity | Pressure | Rain* | Wind** | Luminosity | Snow |
|---|---|---|---|---|---|---|---|
| 1778035098 | 10° C | 93% | 1007.7 hPa | 2.54 mm | 0 m/s | - | - |
| 1778033298 | 10.56° C | 94% | 1007.8 hPa | 3.3 mm | 0 m/s | - | - |
| 1778031498 | 10.56° C | 93% | 1008 hPa | 2.54 mm | 0 m/s | - | - |
| 1778029698 | 10.56° C | 93% | 1008 hPa | 2.54 mm | 0 m/s | - | - |
| 1778027918 | 10.56° C | 93% | 1008.2 hPa | 3.56 mm | 0 m/s | - | - |
| 1778027898 | 10.56° C | 93% | 1008.2 hPa | 3.56 mm | 0 m/s | - | - |
| 1778026099 | 11.11° C | 93% | 1008.4 hPa | 4.06 mm | 0 m/s | - | - |
| 1778024321 | 11.11° C | 93% | 1008.8 hPa | 3.81 mm | 0 m/s | - | - |
| 1778024299 | 11.11° C | 93% | 1008.8 hPa | 3.81 mm | 0 m/s | - | - |
| 1778022499 | 11.11° C | 93% | 1009 hPa | 4.32 mm | 0 m/s | - | - |
| 1778020710 | 11.11° C | 93% | 1009.2 hPa | 4.06 mm | 0 m/s | - | - |
| 1778020699 | 11.11° C | 93% | 1009.2 hPa | 4.06 mm | 0 m/s | - | - |
| 1778018910 | 11.11° C | 93% | 1009.3 hPa | 4.57 mm | 0 m/s | - | - |
| 1778018899 | 11.11° C | 93% | 1009.3 hPa | 4.57 mm | 0 m/s | - | - |
| 1778017099 | 11.11° C | 92% | 1009.5 hPa | 4.57 mm | 0 m/s | - | - |
| 1778015299 | 11.11° C | 92% | 1009.6 hPa | 3.05 mm | 0 m/s | - | - |
| 1778013533 | 11.67° C | 91% | 1009.8 hPa | 3.56 mm | 0 m/s | - | - |
| 1778013533 | 11.67° C | 91% | 1009.8 hPa | 3.56 mm | 0 m/s | - | - |
| 1778013499 | 11.67° C | 91% | 1009.8 hPa | 3.56 mm | 0 m/s | - | - |
| 1778011699 | 11.67° C | 90% | 1009.8 hPa | 3.56 mm | 0 m/s | - | - |
| 1778009899 | 11.67° C | 89% | 1009.9 hPa | 2.79 mm | 0 m/s | - | - |
| 1778008107 | 11.67° C | 88% | 1009.9 hPa | 1.52 mm | 0 m/s | - | - |
| 1778008099 | 11.67° C | 88% | 1009.9 hPa | 1.52 mm | 0 m/s | - | - |
| 1778006299 | 12.22° C | 87% | 1009.9 hPa | 0 mm | 0 m/s | - | - |
| 1778004499 | 12.22° C | 87% | 1010 hPa | 0 mm | 0 m/s | - | - |
* Rain latest hour (hover to see other rain measurements)
** Current wind speed in m/s (hover to see current wind gust speed)